Powrót do katalogu

THOR ABLESTAR DEB

AktywnyLEO
NORAD 5745·DEBRIS·🇺🇸 United States

Wystrzelony Jun 29, 1961 z Cape Canaveral Space Force Station

Loading…

Następne Przeloty (najbliższe 24 godziny)

TLE

ŚwieżeSource: Space-Track

Epoka: Sep 13, 2026, 22:52 UTC

1  5745U 61015JU  26256.95327056  .00011808  00000-0  22622-2 0  9996
2  5745  67.0638 237.4084 0044375 307.3019  52.4057 14.63391190279724

Śledź THOR ABLESTAR DEB w czasie rzeczywistym z AllMySat

Download on the App Store